Location: Unspecified
(54.1780°N, 0.0000°E)
Time: 05:33:36
(UTC+00:00)

S-56A Canister/Altair - Pass Details

Date: 24 June 2019
Orbit: 633 x 2499 km, 38.9° (Epoch: 17 August)

Event Time Altitude Azimuth Distance (km) Brightness Sun altitude
Rises 16:33:21 0° 238° (WSW) 5,004 12.5 31.7°
Reaches altitude 10° 16:37:49 10° 227° (SW) 3,658 11.8 31.1°
Maximum altitude 16:44:23 23° 179° (S) 2,255 10.1 30.1°
Drops below altitude 10° 16:49:22 10° 129° (SE) 2,685 10.0 29.4°
Sets 16:52:04 0° 114° (ESE) 3,417 10.4 29.0°
